Location: Katrenip?du
(16.7934°N, 80.9546°E)
Time: 11:32:38
(UTC+00:00)

Tiangong - Visible Passes

Search period start: 12 August 2022 00:00
Search period end: 22 August 2022 00:00
Orbit: 379 x 386 km, 41.5° (Epoch: 12 August)

Date Brightness Start Highest point End Pass type
(mag) Time Alt. Az. Time Alt. Az. Time Alt. Az.
12 Aug -0.1 14:46:49 10° W 14:49:12 28° NW 14:49:12 28° NW visible
12 Aug -0.9 22:58:06 19° NNW 22:59:57 42° NE 23:02:58 10° ESE visible
13 Aug -2.1 13:46:11 10° SW 13:49:17 79° NW 13:52:24 10° NE visible
13 Aug -1.0 23:34:49 17° W 23:36:19 24° SW 23:38:58 10° SSE visible
14 Aug 0.9 14:24:07 10° WNW 14:25:50 14° NW 14:27:35 10° N visible
15 Aug -0.1 13:22:36 10° WSW 13:25:25 30° NW 13:28:12 10° NNE visible
